TimeCDT,TemperatureF,Dew PointF,Humidity,Sea Level PressureIn,VisibilityMPH,Wind Direction,Wind SpeedMPH,Gust SpeedMPH,PrecipitationIn,Events,Conditions,WindDirDegrees,DateUTC
12:53 AM,21.9,5.0,48,30.11,10.0,North,31.1,44.9,N/A,,Mostly Cloudy,360,2013-04-10 05:53:00
1:53 AM,21.9,3.9,46,30.11,10.0,North,34.5,41.4,N/A,,Mostly Cloudy,350,2013-04-10 06:53:00
2:53 AM,21.9,5.0,48,30.11,10.0,North,31.1,40.3,N/A,,Overcast,350,2013-04-10 07:53:00
3:53 AM,21.0,3.9,48,30.08,10.0,North,34.5,42.6,N/A,,Partly Cloudy,360,2013-04-10 08:53:00
4:53 AM,19.9,5.0,52,30.14,10.0,North,27.6,36.8,N/A,,Clear,360,2013-04-10 09:53:00
5:53 AM,19.9,3.9,50,30.13,10.0,North,20.7,32.2,N/A,,Clear,360,2013-04-10 10:53:00
6:53 AM,19.0,3.0,50,30.12,10.0,North,26.5,40.3,N/A,,Clear,360,2013-04-10 11:53:00
7:53 AM,19.9,3.9,50,30.16,10.0,North,24.2,34.5,N/A,,Overcast,350,2013-04-10 12:53:00
8:53 AM,21.0,3.9,48,30.16,10.0,North,27.6,33.4,N/A,,Overcast,360,2013-04-10 13:53:00
9:53 AM,21.9,3.9,46,30.19,10.0,North,20.7,31.1,N/A,,Overcast,350,2013-04-10 14:53:00
10:53 AM,25.0,3.9,41,30.16,10.0,North,24.2,29.9,N/A,,Overcast,350,2013-04-10 15:53:00
11:53 AM,30.0,3.9,33,30.14,10.0,NNW,24.2,31.1,N/A,,Overcast,340,2013-04-10 16:53:00
12:53 PM,30.9,5.0,33,30.14,10.0,NNW,21.9,27.6,N/A,,Overcast,340,2013-04-10 17:53:00
1:53 PM,32.0,10.0,40,30.11,10.0,NNW,18.4,26.5,N/A,,Overcast,340,2013-04-10 18:53:00
2:53 PM,37.9,10.0,32,30.04,10.0,North,19.6,23.0,N/A,,Clear,10,2013-04-10 19:53:00
3:53 PM,39.9,10.0,29,30.02,10.0,North,13.8,25.3,N/A,,Clear,350,2013-04-10 20:53:00
4:53 PM,43.0,9.0,25,29.99,10.0,North,15.0,-,N/A,,Clear,350,2013-04-10 21:53:00
5:53 PM,43.0,8.1,24,29.98,10.0,North,10.4,20.7,N/A,,Clear,350,2013-04-10 22:53:00
6:53 PM,43.0,7.0,23,29.98,10.0,North,15.0,-,N/A,,Clear,350,2013-04-10 23:53:00
7:53 PM,39.9,7.0,26,29.99,10.0,North,15.0,-,N/A,,Clear,10,2013-04-11 00:53:00
8:53 PM,36.0,8.1,31,30.03,10.0,NNE,8.1,-,N/A,,Clear,20,2013-04-11 01:53:00
9:53 PM,34.0,9.0,35,30.06,10.0,NNE,6.9,-,N/A,,Scattered Clouds,30,2013-04-11 02:53:00
10:53 PM,33.1,9.0,37,30.06,10.0,NE,6.9,-,N/A,,Mostly Cloudy,40,2013-04-11 03:53:00
11:53 PM,30.9,9.0,40,30.05,10.0,NNE,6.9,-,N/A,,Scattered Clouds,30,2013-04-11 04:53:00